When you browse on this site, cookies collect data to enhance your experience and personalize the content and advertising you see.
Visit our Privacy Policy to learn more. By continuing to use the site, you agree to this use of cookies and data.
  • In Norway
  • List of Countries
  • For 7 days
  • Water Temperature
  • Satellite Maps
  • Weather Map
  • Weather Widgets
  • user-avatar
    Login

    Hourly Weather Algiers

    Today, 20 January, Sunday

    Time Temperature Precipitation Wind Pressure Humidity
    00:00 +10°C° 0 mm 3 mps 747 mmHg 67%
    01:00 +10°C° 0 mm 4 mps 747 mmHg 66%
    02:00 +10°C° 0 mm 4 mps 747 mmHg 66%
    03:00 +10°C° 0 mm 4 mps 746 mmHg 66%
    04:00 +10°C° 0 mm 4 mps 746 mmHg 67%
    05:00 +10°C° 0 mm 4 mps 745 mmHg 68%
    06:00 +10°C° 0 mm 4 mps 745 mmHg 70%
    07:00 +10°C° 0.6 mm 4 mps 744 mmHg 72%
    08:00 +9°C° 0.6 mm 5 mps 744 mmHg 75%
    09:00 +10°C° 0.6 mm 5 mps 744 mmHg 78%
    10:00 +10°C° 1.3 mm 5 mps 744 mmHg 78%
    11:00 +11°C° 1.3 mm 4 mps 743 mmHg 79%
    12:00 +11°C° 0 mm 4 mps 743 mmHg 79%
    13:00 +12°C° 0.5 mm 4 mps 743 mmHg 76%
    14:00 +13°C° 0.5 mm 3 mps 743 mmHg 72%
    15:00 +14°C° 0.5 mm 3 mps 742 mmHg 68%
    16:00 +14°C° 0.6 mm 3 mps 743 mmHg 72%
    17:00 +13°C° 0.6 mm 3 mps 743 mmHg 76%
    18:00 +12°C° 0.6 mm 4 mps 743 mmHg 80%
    19:00 +12°C° 0.8 mm 4 mps 743 mmHg 82%
    20:00 +12°C° 0.8 mm 4 mps 744 mmHg 84%
    21:00 +12°C° 0.8 mm 4 mps 744 mmHg 87%
    22:00 +12°C° 1.4 mm 5 mps 744 mmHg 86%
    23:00 +10°C° 1.4 mm 6 mps 744 mmHg 85%

    Tomorrow, 21 January, Monday

    Time Temperature Precipitation Wind Pressure Humidity
    00:00 +10°C° 1.4 mm 6 mps 744 mmHg 85%
    01:00 +10°C° 0.7 mm 7 mps 745 mmHg 82%
    02:00 +10°C° 0.7 mm 7 mps 745 mmHg 80%
    03:00 +10°C° 0.7 mm 8 mps 745 mmHg 78%
    04:00 +10°C° 1 mm 8 mps 745 mmHg 78%
    05:00 +10°C° 1 mm 8 mps 746 mmHg 78%
    06:00 +10°C° 1 mm 8 mps 746 mmHg 77%
    07:00 +10°C° 0.9 mm 8 mps 747 mmHg 77%
    08:00 +10°C° 0.9 mm 7 mps 747 mmHg 76%
    09:00 +10°C° 0.9 mm 6 mps 748 mmHg 76%
    10:00 +10°C° 1.2 mm 6 mps 748 mmHg 76%
    11:00 +10°C° 1.2 mm 5 mps 748 mmHg 76%
    12:00 +10°C° 1.2 mm 5 mps 748 mmHg 75%
    13:00 +10°C° 1.1 mm 5 mps 749 mmHg 75%
    14:00 +10°C° 1.1 mm 5 mps 749 mmHg 75%
    15:00 +10°C° 1.1 mm 5 mps 749 mmHg 75%
    16:00 +10°C° 0.9 mm 4 mps 749 mmHg 75%
    17:00 +10°C° 0.9 mm 3 mps 750 mmHg 76%
    18:00 +10°C° 0.9 mm 2 mps 750 mmHg 76%
    19:00 +9°C° 0.6 mm 2 mps 750 mmHg 78%
    20:00 +9°C° 0.6 mm 2 mps 750 mmHg 79%
    21:00 +10°C° 0.6 mm 1 mps 751 mmHg 80%
    22:00 +9°C° 0.6 mm 2 mps 751 mmHg 80%
    23:00 +9°C° 0.6 mm 2 mps 751 mmHg 80%

    Day after tomorrow, 22 January, Tuesday

    Time Temperature Precipitation Wind Pressure Humidity
    00:00 +8°C° 0.6 mm 2 mps 751 mmHg 80%
    01:00 +8°C° 0.5 mm 2 mps 750 mmHg 80%
    02:00 +8°C° 0.5 mm 3 mps 750 mmHg 80%
    03:00 +8°C° 0.5 mm 3 mps 750 mmHg 79%
    04:00 +8°C° 0.6 mm 3 mps 750 mmHg 77%
    05:00 +8°C° 0.6 mm 3 mps 750 mmHg 76%
    06:00 +8°C° 0.6 mm 3 mps 750 mmHg 74%
    07:00 +8°C° 0.1 mm 4 mps 750 mmHg 72%
    08:00 +8°C° 0.1 mm 5 mps 750 mmHg 69%
    09:00 +9°C° 0.1 mm 5 mps 750 mmHg 67%
    10:00 +9°C° 0.2 mm 6 mps 750 mmHg 64%
    11:00 +10°C° 0.2 mm 7 mps 749 mmHg 60%
    12:00 +11°C° 0.2 mm 7 mps 749 mmHg 57%
    13:00 +11°C° 0 mm 8 mps 748 mmHg 55%
    14:00 +11°C° 0 mm 8 mps 747 mmHg 53%
    15:00 +10°C° 0 mm 8 mps 746 mmHg 51%
    16:00 +10°C° 0 mm 8 mps 746 mmHg 53%
    17:00 +10°C° 0 mm 7 mps 746 mmHg 54%
    18:00 +9°C° 0 mm 7 mps 746 mmHg 56%
    19:00 +9°C° 0.2 mm 7 mps 746 mmHg 59%
    20:00 +9°C° 0.2 mm 6 mps 745 mmHg 62%
    21:00 +9°C° 0.2 mm 6 mps 745 mmHg 65%
    22:00 +9°C° 0.5 mm 7 mps 745 mmHg 68%
    23:00 +9°C° 0.5 mm 7 mps 744 mmHg 70%

    23 January, Wednesday

    Time Temperature Precipitation Wind Pressure Humidity
    00:00 +9°C° 0.5 mm 8 mps 743 mmHg 73%
    01:00 +9°C° 1.5 mm 8 mps 743 mmHg 75%
    02:00 +9°C° 1.5 mm 8 mps 742 mmHg 77%
    03:00 +8°C° 1.5 mm 9 mps 742 mmHg 79%
    04:00 +8°C° 1 mm 9 mps 742 mmHg 74%
    05:00 +8°C° 1 mm 9 mps 742 mmHg 69%
    06:00 +8°C° 1 mm 10 mps 742 mmHg 65%
    07:00 +8°C° 0.5 mm 9 mps 742 mmHg 63%
    08:00 +10°C° 0.5 mm 9 mps 743 mmHg 62%
    09:00 +10°C° 0.5 mm 8 mps 743 mmHg 61%
    10:00 +10°C° 0.1 mm 9 mps 742 mmHg 61%
    11:00 +9°C° 0.1 mm 10 mps 742 mmHg 61%
    12:00 +9°C° 0.1 mm 11 mps 741 mmHg 61%
    13:00 +9°C° 0.9 mm 12 mps 741 mmHg 64%
    14:00 +9°C° 0.9 mm 13 mps 740 mmHg 66%
    15:00 +9°C° 0.9 mm 14 mps 739 mmHg 69%
    16:00 +10°C° 0.9 mm 14 mps 738 mmHg 68%
    17:00 +10°C° 0.9 mm 14 mps 738 mmHg 68%
    18:00 +10°C° 0.9 mm 14 mps 738 mmHg 67%
    19:00 +10°C° 2.3 mm 14 mps 738 mmHg 71%
    20:00 +10°C° 2.3 mm 14 mps 738 mmHg 74%
    21:00 +10°C° 2.3 mm 14 mps 738 mmHg 78%
    22:00 +9°C° 3.2 mm 14 mps 738 mmHg 73%
    23:00 +9°C° 3.2 mm 13 mps 738 mmHg 67%

    24 January, Thursday

    Time Temperature Precipitation Wind Pressure Humidity
    00:00 +9°C° 3.2 mm 13 mps 738 mmHg 62%
    01:00 +8°C° 0.6 mm 12 mps 739 mmHg 63%
    02:00 +7°C° 0.6 mm 11 mps 739 mmHg 64%
    03:00 +6°C° 0.6 mm 10 mps 739 mmHg 65%
    04:00 +6°C° 0.5 mm 10 mps 740 mmHg 62%
    05:00 +6°C° 0.5 mm 10 mps 740 mmHg 59%
    06:00 +5°C° 0.5 mm 10 mps 741 mmHg 56%
    07:00 +6°C° 0.4 mm 10 mps 741 mmHg 55%
    08:00 +6°C° 0.4 mm 10 mps 742 mmHg 55%
    09:00 +6°C° 0.4 mm 10 mps 743 mmHg 54%
    10:00 +6°C° 0.3 mm 10 mps 743 mmHg 54%
    11:00 +7°C° 0.3 mm 10 mps 743 mmHg 54%
    12:00 +7°C° 0.3 mm 10 mps 744 mmHg 53%
    13:00 +7°C° 0.2 mm 9 mps 744 mmHg 54%
    14:00 +7°C° 0.2 mm 9 mps 744 mmHg 54%
    15:00 +7°C° 0.2 mm 8 mps 744 mmHg 54%
    16:00 +7°C° 0.1 mm 8 mps 745 mmHg 56%
    17:00 +6°C° 0.1 mm 7 mps 745 mmHg 57%
    18:00 +7°C° 0.1 mm 6 mps 746 mmHg 59%
    19:00 +7°C° 0.1 mm 5 mps 747 mmHg 60%
    20:00 +7°C° 0.1 mm 5 mps 747 mmHg 60%
    21:00 +8°C° 0.1 mm 4 mps 748 mmHg 60%
    22:00 +8°C° 0.1 mm 4 mps 748 mmHg 62%
    23:00 +9°C° 0.1 mm 3 mps 748 mmHg 63%

    25 January, Friday

    Time Temperature Precipitation Wind Pressure Humidity
    00:00 +8°C° 0.1 mm 2 mps 749 mmHg 64%
    01:00 +8°C° 0.1 mm 3 mps 749 mmHg 64%
    02:00 +8°C° 0.1 mm 3 mps 749 mmHg 65%
    03:00 +8°C° 0.1 mm 3 mps 749 mmHg 65%
    04:00 +8°C° 0 mm 3 mps 749 mmHg 64%
    05:00 +7°C° 0 mm 4 mps 749 mmHg 63%
    06:00 +7°C° 0 mm 4 mps 749 mmHg 62%
    07:00 +7°C° 0 mm 4 mps 750 mmHg 60%
    08:00 +8°C° 0 mm 5 mps 750 mmHg 59%
    09:00 +8°C° 0 mm 5 mps 751 mmHg 57%
    10:00 +9°C° 0 mm 5 mps 751 mmHg 56%
    11:00 +10°C° 0 mm 5 mps 751 mmHg 54%
    12:00 +12°C° 0 mm 5 mps 751 mmHg 52%
    13:00 +12°C° 0 mm 5 mps 751 mmHg 52%
    14:00 +12°C° 0 mm 5 mps 750 mmHg 52%
    15:00 +11°C° 0 mm 6 mps 750 mmHg 51%
    16:00 +12°C° 0 mm 5 mps 751 mmHg 53%
    17:00 +10°C° 0 mm 5 mps 751 mmHg 55%
    18:00 +10°C° 0 mm 4 mps 751 mmHg 57%
    19:00 +10°C° 0 mm 4 mps 751 mmHg 57%
    20:00 +10°C° 0 mm 4 mps 752 mmHg 57%
    21:00 +10°C° 0 mm 4 mps 752 mmHg 58%
    22:00 +10°C° 0 mm 4 mps 752 mmHg 56%
    23:00 +8°C° 0 mm 4 mps 752 mmHg 55%
    Show more